W1HS Weather Reports


Display with metric or nautical units.
time (UTC)temp
F
wind
direction
speed
MPH
gust
MPH
rain 1hr
in
rain 24hr
in
rain mn
in
humidity
%
barometer
mb
20260509172520 46 0.0 1.0 0.03 0.14 0.14 95 992.1
20260509171520 46 0.0 1.0 0.03 0.13 0.13 95 992.2
20260509170520 45 0.0 1.0 0.03 0.13 0.13 95 992.2
20260509165522 45 225 2.0 5.0 0.03 0.12 0.12 95 992.3
20260509164519 44 0.0 1.0 0.04 0.12 0.12 94 992.4
20260509163520 44 225 2.0 4.0 0.04 0.11 0.11 94 992.6
20260509162519 44 225 3.0 4.0 0.04 0.11 0.11 94 992.6
20260509161520 44 225 1.0 3.0 0.04 0.10 0.10 94 992.8
20260509160520 43 0.0 2.0 0.05 0.10 0.10 94 992.9
20260509155521 43 225 2.0 4.0 0.05 0.09 0.09 93 993.0
20260509154519 43 225 3.0 4.0 0.04 0.08 0.08 94 993.1
20260509153519 44 225 1.0 2.0 0.04 0.07 0.07 94 993.2
20260509152520 43 0.0 1.0 0.04 0.07 0.07 93 993.2
20260509151519 43 225 2.0 3.0 0.04 0.06 0.06 92 993.3
20260509150520 43 225 2.0 3.0 0.04 0.05 0.05 92 993.2
20260509145522 43 225 3.0 4.0 0.03 0.04 0.04 91 993.2
20260509144519 43 0.0 1.0 0.04 0.04 0.04 89 993.0
20260509143520 43 0.0 0.0 0.03 0.03 0.03 89 993.0
20260509142520 43 225 1.0 2.0 0.03 0.03 0.03 87 993.0
20260509141519 43 0.0 0.0 0.02 0.02 0.02 86 993.1
20260509140519 43 225 1.0 3.0 0.01 0.01 0.01 85 993.1
20260509135519 44 225 1.0 2.0 0.01 0.01 0.01 82 993.0
20260509134519 45 225 2.0 4.0 0.00 0.00 0.00 80 993.2
20260509133519 46 225 2.0 5.0 0.00 0.00 0.00 75 993.2
20260509132520 46 270 1.0 2.0 0.00 0.00 0.00 71 993.0
20260509131519 47 203 2.0 5.0 0.00 0.00 0.00 69 993.0
20260509130519 48 203 3.0 4.0 0.00 0.00 0.00 66 993.2
20260509125519 48 248 1.0 4.0 0.00 0.00 0.00 66 992.9
20260509124519 47 180 6.0 12.0 0.00 0.00 0.00 65 993.1
20260509123519 47 180 2.0 5.0 0.00 0.00 0.00 66 993.1
20260509122521 46 203 2.0 6.0 0.00 0.00 0.00 66 993.4
20260509121519 45 203 1.0 4.0 0.00 0.00 0.00 68 993.4
20260509120519 45 225 2.0 5.0 0.00 0.00 0.00 70 993.5
20260509115521 44 0.0 1.0 0.00 0.00 0.00 70 993.6
20260509114523 43 225 1.0 2.0 0.00 0.00 0.00 73 993.5
20260509113519 43 225 1.0 2.0 0.00 0.00 0.00 73 993.4
20260509112519 43 0.0 0.0 0.00 0.00 0.00 72 993.5
20260509111519 44 0.0 1.0 0.00 0.00 0.00 70 993.6
20260509110519 43 0.0 1.0 0.00 0.00 0.00 69 993.5
20260509105519 43 0.0 1.0 0.00 0.00 0.00 69 993.5
20260509104519 42 0.0 2.0 0.00 0.00 0.00 71 993.4
20260509103519 42 203 1.0 3.0 0.00 0.00 0.00 71 993.4
20260509102519 41 225 1.0 3.0 0.00 0.00 0.00 73 993.3
20260509101519 40 0.0 2.0 0.00 0.00 0.00 75 993.3
20260509100521 39 203 2.0 5.0 0.00 0.00 0.00 78 993.4
20260509095521 38 180 2.0 6.0 0.00 0.00 0.00 80 993.3
20260509094519 37 180 2.0 5.0 0.00 0.00 0.00 81 993.2
20260509093519 36 203 1.0 3.0 0.00 0.00 0.00 83 993.0
20260509092519 36 0.0 0.0 0.00 0.00 0.00 83 992.9
20260509091519 36 0.0 0.0 0.00 0.00 0.00 83 992.8
20260509090521 37 0.0 0.0 0.00 0.00 0.00 81 992.9
20260509085521 37 0.0 0.0 0.00 0.00 0.00 81 992.7
20260509084519 37 203 1.0 3.0 0.00 0.00 0.00 79 992.6
20260509083521 37 0.0 0.0 0.00 0.00 0.00 78 992.3
20260509082519 38 0.0 0.0 0.00 0.00 0.00 77 992.4
20260509081519 39 0.0 0.0 0.00 0.00 0.00 75 992.6
20260509080519 40 0.0 0.0 0.00 0.00 0.00 72 992.5
20260509075519 41 0.0 0.0 0.00 0.00 0.00 68 992.4
20260509074720 41 0.0 0.0 0.00 0.00 0.00 68 992.5
20260509074319 41 0.0 0.0 0.00 0.00 0.00 69 992.5
20260509073522 40 0.0 0.0 0.00 0.00 0.00 70 992.4
20260509073219 40 0.0 0.0 0.00 0.00 0.00 70 992.4
20260509072219 40 0.0 0.0 0.00 0.00 0.00 70 992.5
20260509071219 41 0.0 0.0 0.00 0.00 0.00 70 992.7
20260509070219 41 0.0 0.0 0.00 0.00 0.00 71 992.6
20260509065219 41 203 2.0 4.0 0.00 0.00 0.00 71 992.9
20260509064219 41 203 1.0 3.0 0.00 0.00 0.00 71 992.9
20260509063219 41 0.0 0.0 0.00 0.00 0.00 70 993.0
20260509062219 41 0.0 1.0 0.00 0.00 0.00 69 993.1
20260509061219 41 0.0 1.0 0.00 0.00 0.00 70 993.1
20260509060219 41 0.0 2.0 0.00 0.00 0.00 71 993.2
20260509055218 41 225 1.0 2.0 0.00 0.00 0.00 71 993.2
20260509054219 41 225 1.0 3.0 0.00 0.00 0.00 70 993.3
20260509053220 41 0.0 0.0 0.00 0.00 0.00 70 993.2
20260509052218 42 0.0 1.0 0.00 0.00 0.00 69 993.0
20260509051219 42 0.0 1.0 0.00 0.00 0.00 69 993.0
20260509050218 42 0.0 0.0 0.00 0.00 0.00 69 992.9
20260509045219 42 0.0 1.0 0.00 0.00 0.00 68 992.8
20260509044218 42 225 1.0 2.0 0.00 0.00 0.00 68 992.8
20260509043219 42 0.0 1.0 0.00 0.00 0.00 68 992.7
20260509042218 42 0.0 1.0 0.00 0.00 0.00 67 992.6
20260509041218 43 0.0 0.0 0.00 0.00 0.00 66 992.7
20260509040218 43 0.0 0.0 0.00 0.00 0.00 65 992.8
20260509035220 44 0.0 1.0 0.00 0.00 0.00 64 992.9
20260509034219 44 0.0 1.0 0.00 0.00 0.00 64 992.9
20260509033219 44 225 1.0 2.0 0.00 0.00 0.00 63 992.7
20260509032220 44 225 2.0 3.0 0.00 0.00 0.00 64 992.6
20260509031218 44 225 1.0 3.0 0.00 0.00 0.00 64 992.5
20260509030218 43 225 1.0 3.0 0.00 0.00 0.00 65 992.3
20260509025218 43 0.0 0.0 0.00 0.00 0.00 66 992.2
20260509024218 43 0.0 0.0 0.00 0.00 0.00 66 992.1
20260509023218 44 0.0 2.0 0.00 0.00 0.00 66 992.1
20260509022219 44 0.0 1.0 0.00 0.00 0.00 65 992.0
20260509021218 44 0.0 3.0 0.00 0.00 0.00 65 992.0
20260509020218 45 0.0 1.0 0.00 0.00 0.00 64 991.9
20260509015218 45 0.0 0.0 0.00 0.00 0.00 63 991.8
20260509014218 45 0.0 3.0 0.00 0.00 0.00 63 991.7
20260509013218 45 0.0 1.0 0.00 0.00 0.00 63 991.5
20260509012218 46 0.0 2.0 0.00 0.00 0.00 62 991.5
20260509011221 46 248 2.0 3.0 0.00 0.00 0.00 62 991.3
20260509010218 46 248 2.0 3.0 0.00 0.00 0.00 62 991.1
20260509005218 46 248 1.0 3.0 0.00 0.00 0.00 62 990.8
20260509004218 46 0.0 0.0 0.00 0.00 0.00 62 990.7
20260509003218 46 248 1.0 5.0 0.00 0.00 0.00 62 990.6
20260509002223 47 248 2.0 5.0 0.00 0.00 0.00 60 990.4
20260509001220 47 248 4.0 7.0 0.00 0.00 0.00 60 990.4
20260509000219 47 248 2.0 4.0 0.00 0.00 0.00 60 990.3
20260508235218 47 270 3.0 4.0 0.00 0.00 0.00 60 990.2
20260508234220 47 270 4.0 6.0 0.00 0.00 0.00 59 990.0
20260508233218 48 248 4.0 8.0 0.00 0.00 0.00 59 989.9
20260508232218 48 270 5.0 9.0 0.00 0.00 0.00 59 989.7
20260508231218 48 248 5.0 7.0 0.00 0.00 0.00 58 989.7
20260508230408 49 248 5.0 8.0 0.00 0.00 0.00 58 989.6
20260508230124 48 248 4.0 6.0 0.00 0.00 0.00 57 989.6
20260508225119 49 248 4.0 7.0 0.00 0.00 0.00 58 989.6
20260508224120 49 270 8.0 12.0 0.00 0.00 0.00 58 989.6
20260508223118 49 248 8.0 12.0 0.00 0.00 0.00 59 989.5
20260508222118 49 225 5.0 10.0 0.00 0.00 0.00 57 989.4
20260508221118 49 248 6.0 8.0 0.00 0.00 0.00 56 989.4
20260508220118 51 248 10.0 13.0 0.00 0.00 0.00 53 989.4
20260508215122 51 248 12.0 14.0 0.00 0.00 0.00 52 989.3
20260508214119 52 225 10.0 13.0 0.00 0.00 0.00 51 989.3
20260508213119 51 225 8.0 10.0 0.00 0.00 0.00 52 989.3
20260508212118 52 270 9.0 13.0 0.00 0.00 0.00 47 989.0
20260508211118 51 248 4.0 8.0 0.00 0.00 0.00 46 989.0
20260508210118 52 293 11.0 15.0 0.00 0.00 0.00 41 988.9
20260508205118 53 0.0 1.0 0.00 0.00 0.00 41 988.8
20260508204305 53 293 7.0 11.0 0.00 0.00 0.00 39 988.8
20260508203119 53 270 8.0 11.0 0.00 0.00 0.00 39 988.7
20260508202125 52 315 4.0 8.0 0.00 0.00 0.00 41 988.6
20260508201337 52 338 1.0 3.0 0.00 0.00 0.00 38 988.5
20260508200629 53 293 4.0 7.0 0.00 0.00 0.00 39 988.5
20260508200019 52 293 3.0 8.0 0.00 0.00 0.00 39 988.5
20260508195343 52 270 5.0 8.0 0.00 0.00 0.00 42 988.6
20260508195341 52 293 7.0 13.0 0.00 0.00 0.00 39 988.5
20260508193530 52 293 3.0 6.0 0.00 0.00 0.00 43 988.5
20260508192626 52 270 8.0 10.0 0.00 0.00 0.00 39 988.5
20260508191820 51 293 3.0 8.0 0.00 0.00 0.00 40 988.5
20260508191027 51 293 2.0 3.0 0.00 0.00 0.00 40 988.5
20260508190425 51 293 6.0 9.0 0.00 0.00 0.00 38 988.5
20260508185420 52 315 1.0 3.0 0.00 0.00 0.00 39 988.5
20260508184518 51 270 9.0 12.0 0.00 0.00 0.00 39 988.6
20260508184515 51 293 7.0 10.0 0.00 0.00 0.00 40 988.8
20260508181718 51 293 10.0 14.0 0.00 0.00 0.00 39 988.8
20260508180718 51 293 7.0 9.0 0.00 0.00 0.00 39 988.9
20260508175826 52 293 7.0 13.0 0.00 0.00 0.00 39 988.9
20260508175222 52 270 7.0 10.0 0.00 0.00 0.00 41 988.8
20260508174742 50 270 9.0 12.0 0.00 0.00 0.00 41 988.9
20260508174740 51 293 9.0 13.0 0.00 0.00 0.00 41 989.0